CSG801 EDDF-VHHH

Flight info

Callsign CSG801
Flight time N/A
Altitude 31000
Route SULUS3D SULUS Z650 VEMUT DCT PEPIK DCT NORAH/N0502F310 DCT BUDOP DCT LUGEB DCT UDROS UM859 KARDE UL851 TBN UM11 REBLO M11 LUSAL N199 RASAM L88 METKA B476 IZGAR/N0500F330 B476 DARVA/K0932F330 T898 OGOLI N193 SR L163 TISIB L141 KAMUD/K0924S1010 W186 SADAN Y1 LUSMA/K0928S1070 Y1 OMBON W245 OVRAL B330 KWE W181 DUDIT A599 POU R473 SIERA
Aircraft B748/H-SDE3FGHIM1M2RWXY/LB1

Departure

Time N/A
Airport Frankfurt Main Airport (EDDF)

Arrival

Time 2026-04-30 09:31
Airport Hong Kong International Airport (VHHH)
Time Latitude Longitude Altitude Speed Heading
2026-04-30 08:32 33.27775 104.41305 31324 ft 531 kts 138°
2026-04-30 08:32 33.25990 104.43277 31334 ft 531 kts 142°
2026-04-30 08:33 33.20060 104.48353 31318 ft 521 kts 154°
2026-04-30 08:33 33.13549 104.51932 31295 ft 514 kts 165°
2026-04-30 08:34 33.05456 104.54100 31279 ft 504 kts 180°
2026-04-30 08:34 32.99699 104.53897 31277 ft 496 kts 192°
2026-04-30 08:35 32.92848 104.53024 31257 ft 497 kts 187°
2026-04-30 08:35 32.85905 104.53567 31288 ft 506 kts 174°
2026-04-30 08:36 32.79074 104.55652 31306 ft 512 kts 171°
2026-04-30 08:36 32.72195 104.57357 31322 ft 506 kts 174°
2026-04-30 08:37 32.65251 104.58793 31295 ft 505 kts 175°
2026-04-30 08:37 32.57232 104.59872 31281 ft 502 kts 183°
2026-04-30 08:38 32.51543 104.59905 31261 ft 498 kts 184°
2026-04-30 08:38 32.43621 104.60221 31236 ft 502 kts 181°
2026-04-30 08:39 32.36686 104.60671 31230 ft 502 kts 182°
2026-04-30 08:39 31.50711 104.65273 31157 ft 498 kts 182°
2026-04-30 08:40 30.73221 104.67752 30842 ft 493 kts 182°
2026-04-30 08:40 30.68198 104.68337 31091 ft 495 kts 175°
2026-04-30 08:40 30.64768 104.69158 31048 ft 504 kts 170°
2026-04-30 08:41 30.58097 104.71854 31061 ft 505 kts 165°
2026-04-30 08:41 30.51381 104.73861 31066 ft 499 kts 175°
2026-04-30 08:42 30.44531 104.74427 31071 ft 494 kts 184°
2026-04-30 08:42 30.37874 104.74562 31061 ft 494 kts 182°
2026-04-30 08:43 30.30981 104.74896 31050 ft 494 kts 180°
2026-04-30 08:43 30.06614 104.77616 31070 ft 497 kts 179°
2026-04-30 08:44 29.38481 104.85710 31024 ft 498 kts 179°
2026-04-30 08:44 29.31246 104.87316 31045 ft 506 kts 168°
2026-04-30 08:45 29.24701 104.90138 31047 ft 510 kts 161°
2026-04-30 08:45 28.77490 105.13999 31100 ft 511 kts 161°
2026-04-30 08:46 28.71042 105.17335 31049 ft 515 kts 156°
2026-04-30 08:46 28.64754 105.21276 31044 ft 516 kts 154°
2026-04-30 08:47 28.58557 105.25455 31048 ft 517 kts 154°
2026-04-30 08:47 28.50970 105.30083 31060 ft 514 kts 156°
2026-04-30 08:47 28.08347 105.55110 31246 ft 516 kts 156°
2026-04-30 08:48 28.05097 105.56855 31117 ft 516 kts 161°
2026-04-30 08:48 27.98363 105.59275 31134 ft 506 kts 172°
2026-04-30 08:49 27.91406 105.60223 31143 ft 499 kts 182°
2026-04-30 08:49 27.84485 105.60723 31135 ft 502 kts 178°
2026-04-30 08:50 27.77561 105.62329 31123 ft 508 kts 167°
2026-04-30 08:50 27.71053 105.65348 31136 ft 517 kts 156°
2026-04-30 08:51 27.65106 105.69715 31143 ft 522 kts 145°
2026-04-30 08:51 27.59802 105.75314 31155 ft 524 kts 137°
2026-04-30 08:52 27.54761 105.81142 31153 ft 525 kts 139°
2026-04-30 08:52 27.49523 105.86787 31172 ft 527 kts 141°
2026-04-30 08:53 27.44037 105.92142 31177 ft 523 kts 143°
2026-04-30 08:53 27.38380 105.97349 31165 ft 522 kts 144°
2026-04-30 08:54 27.06943 106.27391 31356 ft 525 kts 143°
2026-04-30 08:54 26.69307 106.63437 31217 ft 523 kts 143°
2026-04-30 08:54 26.49776 106.82211 31188 ft 518 kts 141°
2026-04-30 08:55 26.44577 106.87714 31211 ft 526 kts 139°
2026-04-30 08:55 26.39454 106.93485 31216 ft 525 kts 137°
2026-04-30 08:56 26.34352 106.99306 31208 ft 525 kts 139°
2026-04-30 08:56 26.15307 107.19827 31365 ft 526 kts 139°
2026-04-30 08:56 25.73541 107.65145 31247 ft 525 kts 137°
2026-04-30 08:57 25.67941 107.71430 31146 ft 520 kts 136°
2026-04-30 08:57 25.63056 107.77377 31152 ft 524 kts 134°
2026-04-30 08:58 25.58345 107.83433 31145 ft 522 kts 132°
2026-04-30 08:58 25.08054 108.46442 31187 ft 521 kts 134°
2026-04-30 08:59 24.32867 109.37914 31139 ft 515 kts 133°
2026-04-30 08:59 23.57266 110.28205 31057 ft 507 kts 136°
2026-04-30 08:59 23.18377 110.73597 31192 ft 511 kts 133°
2026-04-30 09:00 22.82964 111.21752 31090 ft 517 kts 128°
2026-04-30 09:00 22.25020 112.24869 31070 ft 518 kts 117°
2026-04-30 09:01 22.22510 112.32016 31081 ft 523 kts 105°
2026-04-30 09:01 22.21258 112.39674 31078 ft 523 kts 94°
2026-04-30 09:02 22.22213 112.53132 31084 ft 522 kts 77°
2026-04-30 09:02 22.24300 112.60255 31063 ft 512 kts 62°
2026-04-30 09:03 22.27966 112.66609 30668 ft 520 kts 57°
2026-04-30 09:03 22.29929 112.70007 30348 ft 521 kts 54°
2026-04-30 09:03 22.31961 112.73211 30005 ft 520 kts 53°
2026-04-30 09:04 22.34057 112.76405 29656 ft 519 kts 52°
2026-04-30 09:04 22.36123 112.79593 29309 ft 520 kts 54°
2026-04-30 09:04 22.38041 112.82828 28968 ft 521 kts 56°
2026-04-30 09:04 22.39918 112.86216 28630 ft 523 kts 59°
2026-04-30 09:05 22.41698 112.89625 28281 ft 523 kts 56°
2026-04-30 09:05 22.44051 112.92623 27908 ft 517 kts 37°
2026-04-30 09:05 22.47070 112.94599 27618 ft 510 kts 18°
2026-04-30 09:05 22.50487 112.95457 27318 ft 502 kts 360°
2026-04-30 09:06 22.53921 112.95107 27023 ft 491 kts 342°
2026-04-30 09:06 22.57154 112.94010 26791 ft 488 kts 339°
2026-04-30 09:06 22.60421 112.92892 26487 ft 487 kts 339°
2026-04-30 09:06 22.63619 112.91771 26196 ft 484 kts 339°
2026-04-30 09:07 22.66850 112.90641 25912 ft 482 kts 339°
2026-04-30 09:07 22.70041 112.89580 25613 ft 482 kts 344°
2026-04-30 09:07 22.73384 112.89360 25327 ft 490 kts
2026-04-30 09:07 22.76681 112.90379 25099 ft 497 kts 23°
2026-04-30 09:08 22.79563 112.92549 24860 ft 502 kts 43°
2026-04-30 09:08 22.81642 112.95583 24619 ft 505 kts 60°
2026-04-30 09:08 22.83523 112.98715 24384 ft 501 kts 50°
2026-04-30 09:08 22.85391 113.01926 24141 ft 504 kts 66°
2026-04-30 09:09 22.86214 113.05630 23911 ft 505 kts 86°
2026-04-30 09:09 22.85897 113.09376 23691 ft 502 kts 105°
2026-04-30 09:09 22.84517 113.12788 23473 ft 496 kts 123°
2026-04-30 09:09 22.82565 113.15898 23299 ft 495 kts 126°
2026-04-30 09:10 22.80649 113.18838 23032 ft 492 kts 132°
2026-04-30 09:10 22.78055 113.21309 22804 ft 484 kts 146°
2026-04-30 09:10 22.75376 113.23460 22618 ft 483 kts 145°
2026-04-30 09:10 22.72672 113.25666 22365 ft 481 kts 146°
2026-04-30 09:11 22.69841 113.27554 22148 ft 476 kts 155°
2026-04-30 09:11 22.66836 113.28962 21928 ft 472 kts 164°
2026-04-30 09:11 22.63670 113.29940 21717 ft 468 kts 169°
2026-04-30 09:11 22.60496 113.30790 21502 ft 467 kts 169°
2026-04-30 09:12 22.57386 113.31726 21277 ft 467 kts 166°
2026-04-30 09:12 22.54308 113.32771 21062 ft 466 kts 165°
2026-04-30 09:12 22.51298 113.33955 20850 ft 466 kts 162°
2026-04-30 09:12 22.17294 113.48263 18557 ft 459 kts 161°
2026-04-30 09:13 21.98134 113.56889 17069 ft 442 kts 163°
2026-04-30 09:13 21.95225 113.57943 16822 ft 429 kts 166°
2026-04-30 09:13 21.92510 113.58871 16380 ft 408 kts 166°
2026-04-30 09:13 21.89910 113.59775 16107 ft 382 kts 165°
2026-04-30 09:14 21.87514 113.60721 16052 ft 374 kts 162°
2026-04-30 09:14 21.85183 113.61644 15895 ft 371 kts 164°
2026-04-30 09:14 21.82649 113.62611 15684 ft 368 kts 162°
2026-04-30 09:14 21.80267 113.63663 15496 ft 367 kts 160°
2026-04-30 09:15 21.77905 113.64754 15305 ft 367 kts 160°
2026-04-30 09:15 21.75580 113.65840 15113 ft 367 kts 160°
2026-04-30 09:15 21.73238 113.66923 14912 ft 366 kts 160°
2026-04-30 09:15 21.70891 113.68008 14707 ft 365 kts 160°
2026-04-30 09:16 21.68614 113.69057 14513 ft 364 kts 160°
2026-04-30 09:16 21.66308 113.70187 14274 ft 367 kts 154°
2026-04-30 09:16 21.64190 113.71658 14055 ft 368 kts 144°
2026-04-30 09:16 21.62255 113.73597 13818 ft 407 kts 134°
2026-04-30 09:17 21.60484 113.76092 13555 ft 454 kts 124°
2026-04-30 09:17 21.58928 113.79180 13240 ft 496 kts 115°
2026-04-30 09:17 21.57792 113.82458 12608 ft 468 kts 105°
2026-04-30 09:17 21.57250 113.85294 12242 ft 434 kts 96°
2026-04-30 09:18 21.57121 113.87943 11923 ft 405 kts 88°
2026-04-30 09:18 21.57619 113.93347 11328 ft 356 kts 64°
2026-04-30 09:18 21.59126 113.95580 11249 ft 346 kts 35°
2026-04-30 09:19 21.61371 113.96753 11058 ft 337 kts
2026-04-30 09:19 21.63687 113.96795 10915 ft 330 kts 352°
2026-04-30 09:19 21.65948 113.96521 10715 ft 328 kts 345°
2026-04-30 09:19 21.68127 113.95945 10498 ft 325 kts 339°
2026-04-30 09:20 21.70287 113.95231 10279 ft 324 kts 342°
2026-04-30 09:20 21.72478 113.94579 10079 ft 323 kts 340°
2026-04-30 09:20 21.74636 113.93882 9869 ft 322 kts 339°
2026-04-30 09:20 21.76757 113.93174 9654 ft 320 kts 339°
2026-04-30 09:21 21.78868 113.92436 9415 ft 311 kts 338°
2026-04-30 09:21 21.80892 113.91739 9182 ft 303 kts 339°
2026-04-30 09:21 21.82883 113.91067 8963 ft 295 kts 339°
2026-04-30 09:21 21.84824 113.90400 8749 ft 286 kts 336°
2026-04-30 09:22 21.86612 113.89518 8543 ft 277 kts 332°
2026-04-30 09:22 21.88327 113.88649 8365 ft 277 kts 332°
2026-04-30 09:22 21.90102 113.87775 8194 ft 278 kts 333°
2026-04-30 09:22 21.91846 113.86923 8021 ft 279 kts 333°
2026-04-30 09:23 21.93627 113.86053 7831 ft 278 kts 333°
2026-04-30 09:23 21.95388 113.85188 7637 ft 277 kts 333°
2026-04-30 09:23 21.97127 113.84331 7439 ft 274 kts 333°
2026-04-30 09:23 21.98824 113.83494 7192 ft 269 kts 333°
2026-04-30 09:24 22.00542 113.82644 6875 ft 267 kts 333°
2026-04-30 09:24 22.02202 113.81821 6578 ft 265 kts 333°
2026-04-30 09:24 22.03871 113.80992 6285 ft 263 kts 334°
2026-04-30 09:24 22.05501 113.80183 6095 ft 252 kts 334°
2026-04-30 09:25 22.07071 113.79401 5774 ft 246 kts 334°
2026-04-30 09:25 22.08609 113.78631 5485 ft 240 kts 334°
2026-04-30 09:25 22.10109 113.77879 5200 ft 234 kts 334°
2026-04-30 09:25 22.11576 113.77148 4928 ft 228 kts 335°
2026-04-30 09:26 22.13013 113.76436 4657 ft 223 kts 335°
2026-04-30 09:26 22.14411 113.75740 4409 ft 219 kts 335°
2026-04-30 09:26 22.15790 113.75053 4168 ft 218 kts 335°
2026-04-30 09:26 22.17149 113.74374 3941 ft 218 kts 335°
2026-04-30 09:27 22.18547 113.73673 3702 ft 219 kts 336°
2026-04-30 09:27 22.19945 113.73229 3437 ft 218 kts 357°
2026-04-30 09:27 22.21286 113.73452 3223 ft 218 kts 24°
2026-04-30 09:27 22.22482 113.74337 3031 ft 217 kts 38°
2026-04-30 09:28 22.23630 113.75197 2827 ft 214 kts 31°
2026-04-30 09:28 22.24855 113.75957 2703 ft 194 kts 34°
2026-04-30 09:28 22.25593 113.77136 2407 ft 176 kts 72°
2026-04-30 09:28 22.25944 113.78449 2176 ft 168 kts 72°
2026-04-30 09:29 22.26288 113.79583 1937 ft 158 kts 68°
2026-04-30 09:29 22.26662 113.80692 1750 ft 155 kts 69°
2026-04-30 09:29 22.27011 113.81778 1568 ft 156 kts 70°
2026-04-30 09:29 22.27366 113.82883 1373 ft 157 kts 69°
2026-04-30 09:30 22.27725 113.83983 1170 ft 158 kts 69°
2026-04-30 09:30 22.28081 113.85079 970 ft 158 kts 69°
2026-04-30 09:30 22.28445 113.86201 762 ft 159 kts 69°
2026-04-30 09:30 22.28809 113.87318 557 ft 159 kts 69°
2026-04-30 09:31 22.29176 113.88455 352 ft 161 kts 69°
2026-04-30 09:31 22.29527 113.89536 157 ft 162 kts 69°
2026-04-30 09:31 22.29885 113.90627 43 ft 142 kts 70°
2026-04-30 09:31 22.30067 113.91187 42 ft 29 kts 71°
2026-04-30 09:32 22.30151 113.91444 42 ft 49 kts 69°
2026-04-30 09:32 22.30262 113.91788 42 ft 64 kts 70°
2026-04-30 09:32 22.30352 113.92339 42 ft 25 kts 100°
2026-04-30 09:33 22.30330 113.92502 42 ft 5 kts 91°
2026-04-30 09:33 22.30332 113.92545 42 ft 5 kts 84°
2026-04-30 09:33 22.30343 113.92603 42 ft 9 kts 75°
2026-04-30 09:33 22.30330 113.92689 42 ft 15 kts 138°
2026-04-30 09:34 22.30230 113.92737 42 ft 16 kts 161°
2026-04-30 09:34 22.30152 113.92693 42 ft 14 kts 242°
2026-04-30 09:34 22.30113 113.92583 42 ft 16 kts 252°
2026-04-30 09:34 22.30073 113.92457 42 ft 18 kts 251°
2026-04-30 09:35 22.30035 113.92345 42 ft 11 kts 232°
2026-04-30 09:35 22.30015 113.92333 42 ft 1 kts 191°
2026-04-30 09:35 22.29989 113.92330 42 ft 5 kts 175°
2026-04-30 09:35 22.29960 113.92337 42 ft 3 kts 162°
2026-04-30 09:36 22.29942 113.92343 42 ft 0 kts 162°